Algona, IA

3:28 PM CDT on July 25, 2017 (GMT -0500)
Algona Municipal

Weather History for KAXA - February, 2013

Change the Weather History Date:

Tuesday, February 19, 2013

  Actual Average Record
Temperature  
Mean Temperature 7 °F -  
Max Temperature 14 °F 31 °F 62 °F (2017)
Min Temperature 0 °F 17 °F -7 °F (2008)
Degree Days  
Heating Degree Days 58    
Moisture  
Dew Point -4 °F    
Average Humidity 64    
Maximum Humidity 72    
Minimum Humidity 53    
Precipitation  
Precipitation 0.00 in - - ()
Sea Level Pressure  
Sea Level Pressure 30.13 in    
Wind  
Wind Speed 23 mph (NW)    
Max Wind Speed 30 mph    
Max Gust Speed 46 mph    
Visibility 10 miles    
Events Snow    
Averages and records for this station are not official NWS values.
T = Trace of Precipitation, MM = Missing Value Source: NWS Daily Summary

Daily Weather History Graph

Daily Weather History Graph

Search for Another Location

Airport or City:

Trip Planner

Search our weather history database for the weather conditions in past years. The results will help you decide how hot, cold, wet, or windy it might be!

Date:

Astronomy

Feb. 19, 2013 Rise Set
Actual Time 7:08 AM CST 5:53 PM CST
Civil Twilight 6:39 AM CST 6:22 PM CST
Nautical Twilight 6:06 AM CST 6:55 PM CST
Astronomical Twilight 5:33 AM CST 7:28 PM CST
Moon 12:21 PM CST (2/19) 2:45 AM CST (2/19)
Length of Visible Light 11h 43m
Length of Day
10h 45m
Waxing Gibbous, 67% of the Moon is Illuminated
Feb 19
Waxing Gibbous
Feb 25
Full
Mar 4
Last Quarter
Mar 11
New
Mar 19
First Quarter

Hourly Weather History & Observations

Time (CST) Temp. Windchill Dew Point Humidity Pressure Visibility Wind Dir Wind Speed Gust Speed Precip Events Conditions
12:15 AM 6.8 °F -14.3 °F -2.2 °F 67% 29.90 in 10.0 mi NW 23.0 mph 36.8 mph N/A Snow Light Snow
12:35 AM 6.8 °F -15.9 °F -0.4 °F 72% 29.90 in 3.0 mi NW 27.6 mph 36.8 mph N/A Snow Light Snow
12:55 AM 5.0 °F -19.0 °F -2.2 °F 72% 29.91 in 4.0 mi NW 29.9 mph 41.4 mph N/A Snow Light Snow
1:15 AM 5.0 °F -17.5 °F -4.0 °F 66% 29.92 in 10.0 mi NW 25.3 mph 41.4 mph N/A Snow Light Snow
1:35 AM 3.2 °F -21.5 °F -4.0 °F 72% 29.94 in 10.0 mi NW 29.9 mph 42.6 mph N/A Snow Light Snow
1:55 AM 3.2 °F -20.7 °F -4.0 °F 72% 29.94 in 10.0 mi NW 27.6 mph 41.4 mph N/A Snow Light Snow
2:15 AM 3.2 °F -21.5 °F -5.8 °F 66% 29.94 in 10.0 mi NW 29.9 mph 46.0 mph N/A Snow Light Snow
2:35 AM 3.2 °F -20.7 °F -5.8 °F 66% 29.95 in 10.0 mi NW 27.6 mph 35.7 mph N/A Snow Light Snow
2:55 AM 3.2 °F -19.0 °F -5.8 °F 66% 29.96 in 10.0 mi NW 23.0 mph 34.5 mph N/A Snow Light Snow
3:15 AM 3.2 °F -20.7 °F -4.0 °F 72% 29.97 in 8.0 mi NW 27.6 mph 40.3 mph N/A Snow Light Snow
3:35 AM 3.2 °F -19.0 °F -5.8 °F 66% 29.97 in 10.0 mi NNW 23.0 mph 42.6 mph N/A Snow Light Snow
3:55 AM 1.4 °F -21.4 °F -5.8 °F 72% 29.98 in 10.0 mi NNW 23.0 mph 38.0 mph N/A Snow Light Snow
4:15 AM 1.4 °F -23.5 °F -7.6 °F 66% 29.98 in 10.0 mi NNW 28.8 mph 35.7 mph N/A Snow Light Snow
4:35 AM 1.4 °F -21.4 °F -5.8 °F 72% 29.99 in 9.0 mi NW 23.0 mph 33.4 mph N/A Snow Light Snow
4:55 AM 3.2 °F -18.6 °F -5.8 °F 66% 30.00 in 10.0 mi NW 21.9 mph 32.2 mph N/A Snow Light Snow
5:15 AM 3.2 °F -16.5 °F -5.8 °F 66% 30.01 in 10.0 mi NW 17.3 mph 28.8 mph N/A Snow Light Snow
5:55 AM 3.2 °F -17.6 °F -4.0 °F 72% 30.02 in 10.0 mi NW 19.6 mph 34.5 mph N/A Snow Light Snow
6:15 AM 3.2 °F -19.9 °F -4.0 °F 72% 30.03 in 5.0 mi NW 25.3 mph 36.8 mph N/A Snow Light Snow
6:35 AM 3.2 °F -19.9 °F -5.8 °F 66% 30.03 in 10.0 mi NW 25.3 mph 33.4 mph N/A Snow Light Snow
6:55 AM 3.2 °F -19.0 °F -5.8 °F 66% 30.03 in 10.0 mi NW 23.0 mph 32.2 mph N/A Snow Light Snow
7:15 AM 3.2 °F -18.6 °F -5.8 °F 66% 30.04 in 10.0 mi NW 21.9 mph 32.2 mph N/A Snow Light Snow
7:35 AM 3.2 °F -20.3 °F -5.8 °F 66% 30.05 in 10.0 mi NW 26.5 mph 38.0 mph N/A Snow Light Snow
7:55 AM 3.2 °F -18.6 °F -5.8 °F 66% 30.06 in 10.0 mi NW 21.9 mph 35.7 mph N/A Snow Light Snow
8:15 AM 3.2 °F -19.9 °F -5.8 °F 66% 30.07 in 10.0 mi NW 25.3 mph 32.2 mph N/A Snow Light Snow
8:35 AM 5.0 °F -16.7 °F -4.0 °F 66% 30.09 in 10.0 mi NW 23.0 mph 32.2 mph N/A Snow Light Snow
8:55 AM 5.0 °F -14.7 °F -4.0 °F 66% 30.10 in 10.0 mi NW 18.4 mph 33.4 mph N/A Snow Light Snow
9:35 AM 6.8 °F -15.5 °F -4.0 °F 61% 30.12 in 10.0 mi NW 26.5 mph 34.5 mph N/A Snow Light Snow
9:55 AM 5.0 °F -17.1 °F -7.6 °F 56% 30.13 in 10.0 mi NW 24.2 mph 36.8 mph N/A Snow Light Snow
10:15 AM 5.0 °F -17.5 °F -7.6 °F 56% 30.13 in 10.0 mi NW 25.3 mph 33.4 mph N/A Snow Light Snow
10:35 AM 5.0 °F -17.1 °F -7.6 °F 56% 30.15 in 9.0 mi NW 24.2 mph 34.5 mph N/A Snow Light Snow
10:55 AM 5.0 °F -16.2 °F -5.8 °F 61% 30.15 in 10.0 mi NNW 21.9 mph 34.5 mph N/A Snow Light Snow
11:15 AM 5.0 °F -17.1 °F -5.8 °F 61% 30.16 in 10.0 mi NW 24.2 mph 32.2 mph N/A Snow Light Snow
11:35 AM 6.8 °F -14.3 °F -5.8 °F 56% 30.16 in 10.0 mi NW 23.0 mph 33.4 mph N/A Snow Light Snow
11:55 AM 6.8 °F -13.8 °F -4.0 °F 61% 30.16 in 10.0 mi NNW 21.9 mph 33.4 mph N/A Snow Light Snow
12:15 PM 8.6 °F -11.4 °F -4.0 °F 57% 30.17 in 10.0 mi NW 21.9 mph 34.5 mph N/A Snow Light Snow
12:35 PM 8.6 °F -11.9 °F -2.2 °F 62% 30.17 in 10.0 mi NW 23.0 mph 33.4 mph N/A Snow Light Snow
12:55 PM 10.4 °F -8.2 °F -2.2 °F 57% 30.17 in 10.0 mi NW 19.6 mph 32.2 mph N/A Snow Light Snow
1:15 PM 10.4 °F -8.2 °F -0.4 °F 62% 30.17 in 10.0 mi NW 19.6 mph 33.4 mph N/A Snow Light Snow
1:35 PM 12.2 °F -5.3 °F -0.4 °F 57% 30.17 in 10.0 mi NW 18.4 mph 32.2 mph N/A Snow Light Snow
1:55 PM 12.2 °F -6.7 °F -0.4 °F 57% 30.17 in 10.0 mi NW 21.9 mph 31.1 mph N/A Snow Light Snow
2:15 PM 12.2 °F -6.3 °F 1.4 °F 62% 30.17 in 10.0 mi NW 20.7 mph 32.2 mph N/A Snow Light Snow
2:35 PM 14.0 °F -4.7 °F -0.4 °F 53% 30.18 in 10.0 mi NW 23.0 mph 35.7 mph N/A Snow Light Snow
2:55 PM 14.0 °F -3.9 °F 1.4 °F 57% 30.18 in 10.0 mi NW 20.7 mph 31.1 mph N/A Snow Light Snow
3:15 PM 14.0 °F -3.9 °F 1.4 °F 57% 30.19 in 10.0 mi NW 20.7 mph 34.5 mph N/A Snow Light Snow
3:35 PM 14.0 °F -3.9 °F 1.4 °F 57% 30.19 in - NW 20.7 mph 28.8 mph N/A Snow Light Snow
3:55 PM 14.0 °F -3.0 °F 1.4 °F 57% 30.20 in 10.0 mi NW 18.4 mph 28.8 mph N/A Snow Light Snow
4:15 PM 14.0 °F -3.9 °F -0.4 °F 53% 30.21 in 10.0 mi NW 20.7 mph - N/A Snow Light Snow
4:35 PM 12.2 °F -6.3 °F -0.4 °F 57% 30.21 in 10.0 mi NW 20.7 mph 27.6 mph N/A Snow Light Snow
4:55 PM 12.2 °F -4.3 °F -0.4 °F 57% 30.22 in 10.0 mi NW 16.1 mph 29.9 mph N/A Snow Light Snow
5:15 PM 10.4 °F -7.7 °F -0.4 °F 62% 30.22 in 10.0 mi NW 18.4 mph 26.5 mph N/A Snow Light Snow
6:35 PM 6.8 °F -11.3 °F -2.2 °F 67% 30.24 in 10.0 mi NNW 16.1 mph 23.0 mph N/A Snow Light Snow
6:55 PM 5.0 °F -15.7 °F -4.0 °F 66% 30.26 in 10.0 mi NNW 20.7 mph - N/A Snow Light Snow
7:15 PM 5.0 °F -13.6 °F -4.0 °F 66% 30.26 in 10.0 mi NNW 16.1 mph 23.0 mph N/A Snow Light Snow
7:35 PM 3.2 °F -15.3 °F -4.0 °F 72% 30.27 in 10.0 mi North 15.0 mph - N/A Snow Light Snow
7:55 PM 3.2 °F -16.5 °F -5.8 °F 66% 30.27 in 10.0 mi NNW 17.3 mph 25.3 mph N/A Snow Light Snow
8:15 PM 1.4 °F -20.5 °F -7.6 °F 66% 30.26 in 10.0 mi North 20.7 mph - N/A Snow Light Snow
8:35 PM 1.4 °F -15.3 °F -5.8 °F 72% 30.28 in 10.0 mi North 11.5 mph 20.7 mph N/A Snow Light Snow
8:55 PM 1.4 °F -17.6 °F -7.6 °F 66% 30.29 in 10.0 mi North 15.0 mph 23.0 mph N/A Snow Light Snow
9:15 PM -0.4 °F -20.5 °F -7.6 °F 72% 30.29 in 10.0 mi North 16.1 mph 21.9 mph N/A   Clear
9:55 PM -0.4 °F -18.4 °F -7.6 °F 72% 30.30 in 10.0 mi North 12.7 mph - N/A   Clear
10:15 PM -0.4 °F -17.6 °F -9.4 °F 66% 30.31 in 10.0 mi NNW 11.5 mph - N/A   Clear
10:35 PM -0.4 °F -17.6 °F -9.4 °F 66% 30.31 in 10.0 mi NNW 11.5 mph 17.3 mph N/A   Clear
10:55 PM -0.4 °F -18.4 °F -9.4 °F 66% 30.32 in 10.0 mi NNW 12.7 mph - N/A   Clear
11:15 PM -0.4 °F -19.2 °F -9.4 °F 66% 30.33 in 10.0 mi NNW 13.8 mph - N/A   Clear
11:35 PM -0.4 °F -19.2 °F -9.4 °F 66% 30.34 in 10.0 mi NNW 13.8 mph - N/A   Clear
11:55 PM -0.4 °F -19.9 °F -9.4 °F 66% 30.35 in 10.0 mi NNW 15.0 mph - N/A   Clear